KC7FQC Weather Reports


Display with metric or nautical units.
time (UTC)temp
F
wind
direction
speed
MPH
gust
MPH
rain 1hr
in
rain 24hr
in
rain mn
in
humidity
%
barometer
mb
20191021180636 81 46 2.0 5.0 0.00 0.00 0.00 12 1015.1
20191021180151 80 46 2.0 5.0 0.00 0.00 0.00 12 1015.0
20191021175636 82 32 4.0 4.0 0.00 0.00 0.00 12 1015.1
20191021175137 81 30 0.0 3.0 0.00 0.00 0.00 11 1015.3
20191021174636 80 30 2.0 4.0 0.00 0.00 0.00 12 1015.1
20191021174136 79 30 2.0 5.0 0.00 0.00 0.00 12 1015.1
20191021173636 79 29 3.0 5.0 0.00 0.00 0.00 13 1015.1
20191021173136 78 19 3.0 4.0 0.00 0.00 0.00 13 1015.2
20191021172636 78 19 3.0 4.0 0.00 0.00 0.00 13 1015.2
20191021172136 77 10 2.0 4.0 0.00 0.00 0.00 13 1015.2
20191021171651 77 10 0.0 4.0 0.00 0.00 0.00 12 1015.2
20191021171151 77 10 0.0 3.0 0.00 0.00 0.00 13 1015.3
20191021170651 77 10 1.0 3.0 0.00 0.00 0.00 14 1015.1
20191021170136 76 9 2.0 2.0 0.00 0.00 0.00 14 1015.0
20191021165636 75 9 0.0 3.0 0.00 0.00 0.00 14 1015.0
20191021165151 75 9 0.0 3.0 0.00 0.00 0.00 14 1015.0
20191021164636 75 5 0.0 3.0 0.00 0.00 0.00 14 1015.0
20191021164151 74 5 0.0 3.0 0.00 0.00 0.00 13 1015.0
20191021163651 74 9 0.0 3.0 0.00 0.00 0.00 15 1014.9
20191021163151 73 9 0.0 3.0 0.00 0.00 0.00 15 1014.9
20191021162651 73 9 2.0 3.0 0.00 0.00 0.00 16 1014.9
20191021162136 73 9 1.0 3.0 0.00 0.00 0.00 17 1014.9
20191021161651 72 9 1.0 3.0 0.00 0.00 0.00 18 1014.8
20191021161151 73 5 1.0 2.0 0.00 0.00 0.00 18 1014.9
20191021160651 71 5 0.0 2.0 0.00 0.00 0.00 19 1014.9
20191021160151 70 5 0.0 3.0 0.00 0.00 0.00 19 1014.7
20191021155636 71 5 0.0 3.0 0.00 0.00 0.00 19 1015.0
20191021155136 71 5 2.0 2.0 0.00 0.00 0.00 19 1014.9
20191021154651 71 5 0.0 2.0 0.00 0.00 0.00 19 1014.9
20191021154136 71 5 2.0 3.0 0.00 0.00 0.00 19 1014.8
20191021153636 70 5 0.0 3.0 0.00 0.00 0.00 20 1014.7
20191021153151 70 5 3.0 3.0 0.00 0.00 0.00 20 1014.6
20191021152636 69 5 0.0 2.0 0.00 0.00 0.00 22 1014.6
20191021152151 68 5 1.0 1.0 0.00 0.00 0.00 21 1014.5
20191021151651 67 5 0.0 0.0 0.00 0.00 0.00 24 1014.4
20191021151136 66 5 0.0 0.0 0.00 0.00 0.00 25 1014.3
20191021150651 65 5 0.0 0.0 0.00 0.00 0.00 26 1014.2
20191021150151 64 5 0.0 0.0 0.00 0.00 0.00 27 1014.0
20191021145651 63 5 0.0 0.0 0.00 0.00 0.00 29 1014.1
20191021145151 62 5 0.0 0.0 0.00 0.00 0.00 29 1013.9
20191021144636 62 5 0.0 0.0 0.00 0.00 0.00 28 1013.7
20191021144136 61 5 0.0 0.0 0.00 0.00 0.00 31 1013.7
20191021143636 60 5 0.0 0.0 0.00 0.00 0.00 31 1013.5
20191021143136 59 5 0.0 0.0 0.00 0.00 0.00 29 1013.4
20191021142651 59 5 0.0 0.0 0.00 0.00 0.00 28 1013.3
20191021142135 59 12 0.0 0.0 0.00 0.00 0.00 29 1013.1
20191021141635 58 12 0.0 0.0 0.00 0.00 0.00 29 1013.0
20191021141151 58 13 0.0 0.0 0.00 0.00 0.00 27 1013.0
20191021140636 58 13 0.0 0.0 0.00 0.00 0.00 28 1013.0
20191021140151 58 9 0.0 0.0 0.00 0.00 0.00 29 1013.0
20191021135651 58 9 0.0 0.0 0.00 0.00 0.00 29 1013.1
20191021135135 58 9 0.0 0.0 0.00 0.00 0.00 28 1013.1
20191021134651 58 9 0.0 0.0 0.00 0.00 0.00 28 1013.0
20191021134136 59 9 0.0 0.0 0.00 0.00 0.00 27 1013.0
20191021133635 59 9 0.0 0.0 0.00 0.00 0.00 25 1012.9
20191021133136 59 9 0.0 0.0 0.00 0.00 0.00 25 1012.9
20191021132651 59 9 0.0 0.0 0.00 0.00 0.00 26 1012.8
20191021132135 60 9 0.0 0.0 0.00 0.00 0.00 25 1012.8
20191021131635 60 9 0.0 0.0 0.00 0.00 0.00 25 1012.6
20191021131135 60 9 0.0 0.0 0.00 0.00 0.00 24 1012.4
20191021130636 61 9 0.0 0.0 0.00 0.00 0.00 23 1012.3
20191021130137 61 9 0.0 0.0 0.00 0.00 0.00 22 1012.3
20191021125651 61 9 0.0 0.0 0.00 0.00 0.00 21 1012.4
20191021125151 62 9 0.0 0.0 0.00 0.00 0.00 21 1012.6
20191021124636 63 9 0.0 0.0 0.00 0.00 0.00 20 1012.6
20191021124135 63 9 0.0 0.0 0.00 0.00 0.00 20 1012.4
20191021123651 63 9 0.0 0.0 0.00 0.00 0.00 18 1012.4
20191021123151 63 9 0.0 2.0 0.00 0.00 0.00 18 1012.4
20191021122637 64 9 0.0 2.0 0.00 0.00 0.00 18 1012.6
20191021122150 64 9 0.0 1.0 0.00 0.00 0.00 18 1012.4
20191021121651 65 9 0.0 3.0 0.00 0.00 0.00 17 1012.4
20191021121137 65 9 0.0 3.0 0.00 0.00 0.00 15 1012.3
20191021120636 65 9 2.0 2.0 0.00 0.00 0.00 15 1012.1
20191021120135 66 9 0.0 1.0 0.00 0.00 0.00 15 1012.0
20191021115635 66 9 0.0 1.0 0.00 0.00 0.00 15 1012.1
20191021115151 66 9 0.0 5.0 0.00 0.00 0.00 15 1012.1
20191021114635 67 9 0.0 5.0 0.00 0.00 0.00 14 1012.1
20191021114151 67 9 3.0 6.0 0.00 0.00 0.00 14 1012.0
20191021113635 67 9 4.0 9.0 0.00 0.00 0.00 13 1011.9
20191021113151 67 9 5.0 9.0 0.00 0.00 0.00 13 1011.9
20191021112651 67 5 5.0 7.0 0.00 0.00 0.00 13 1012.0
20191021112151 68 5 2.0 4.0 0.00 0.00 0.00 13 1011.9
20191021111636 68 5 2.0 3.0 0.00 0.00 0.00 13 1011.9
20191021111152 69 5 1.0 8.0 0.00 0.00 0.00 13 1012.0
20191021110651 69 5 0.0 8.0 0.00 0.00 0.00 12 1011.7
20191021110135 70 5 4.0 10.0 0.00 0.00 0.00 12 1011.6
20191021105651 70 5 5.0 10.0 0.00 0.00 0.00 12 1011.6
20191021105135 70 15 5.0 9.0 0.00 0.00 0.00 12 1011.7
20191021104650 70 355 3.0 11.0 0.00 0.00 0.00 12 1011.5
20191021104135 70 12 9.0 12.0 0.00 0.00 0.00 12 1011.4
20191021103635 70 360 3.0 12.0 0.00 0.00 0.00 12 1011.5
20191021103151 70 5 2.0 13.0 0.00 0.00 0.00 12 1011.4
20191021102651 70 13 4.0 13.0 0.00 0.00 0.00 12 1011.4
20191021102151 70 12 8.0 13.0 0.00 0.00 0.00 11 1011.5
20191021101651 70 351 7.0 12.0 0.00 0.00 0.00 12 1011.5
20191021101135 70 11 12.0 12.0 0.00 0.00 0.00 12 1011.6
20191021100635 69 355 7.0 12.0 0.00 0.00 0.00 12 1011.6
20191021100150 69 344 5.0 7.0 0.00 0.00 0.00 12 1011.7
20191021095635 69 340 3.0 7.0 0.00 0.00 0.00 13 1011.9
20191021095151 70 340 4.0 8.0 0.00 0.00 0.00 12 1011.8
20191021094635 70 334 3.0 8.0 0.00 0.00 0.00 12 1011.7
20191021094135 70 350 3.0 8.0 0.00 0.00 0.00 12 1011.7
20191021093651 70 346 6.0 10.0 0.00 0.00 0.00 12 1011.8
20191021093135 70 340 4.0 10.0 0.00 0.00 0.00 12 1011.9
20191021092651 70 350 9.0 10.0 0.00 0.00 0.00 12 1011.8
20191021092135 70 355 2.0 9.0 0.00 0.00 0.00 12 1011.8
20191021091635 70 344 4.0 8.0 0.00 0.00 0.00 12 1011.5
20191021091150 70 347 1.0 8.0 0.00 0.00 0.00 12 1011.5
20191021090635 70 348 5.0 10.0 0.00 0.00 0.00 12 1011.4
20191021090151 70 355 6.0 10.0 0.00 0.00 0.00 12 1011.7
20191021085651 70 355 6.0 10.0 0.00 0.00 0.00 12 1011.5
20191021085135 70 342 3.0 11.0 0.00 0.00 0.00 12 1011.6
20191021084635 70 344 6.0 11.0 0.00 0.00 0.00 12 1011.5
20191021084135 69 338 4.0 9.0 0.00 0.00 0.00 12 1011.5
20191021083635 69 331 2.0 9.0 0.00 0.00 0.00 12 1011.5
20191021083150 69 331 3.0 7.0 0.00 0.00 0.00 13 1011.4
20191021082635 69 331 2.0 7.0 0.00 0.00 0.00 12 1011.4
20191021082150 69 331 1.0 6.0 0.00 0.00 0.00 12 1011.3
20191021081635 70 333 3.0 6.0 0.00 0.00 0.00 12 1011.3
20191021081135 70 333 1.0 4.0 0.00 0.00 0.00 12 1011.3
20191021080635 70 333 2.0 5.0 0.00 0.00 0.00 12 1011.3
20191021080135 71 333 0.0 5.0 0.00 0.00 0.00 11 1011.4
20191021075650 71 334 3.0 5.0 0.00 0.00 0.00 11 1011.3
20191021075150 71 334 1.0 5.0 0.00 0.00 0.00 11 1011.2
20191021074650 71 334 1.0 7.0 0.00 0.00 0.00 11 1010.9
20191021074150 71 334 3.0 7.0 0.00 0.00 0.00 11 1010.8
20191021073635 71 333 3.0 6.0 0.00 0.00 0.00 11 1010.9
20191021073135 72 333 2.0 6.0 0.00 0.00 0.00 11 1011.0
20191021072650 72 332 3.0 7.0 0.00 0.00 0.00 11 1011.0
20191021072135 72 337 5.0 8.0 0.00 0.00 0.00 11 1011.2
20191021071635 72 336 4.0 8.0 0.00 0.00 0.00 11 1011.4
20191021071150 72 333 4.0 7.0 0.00 0.00 0.00 11 1011.5
20191021070650 72 333 3.0 7.0 0.00 0.00 0.00 11 1011.5
20191021070135 73 333 1.0 7.0 0.00 0.00 0.00 11 1011.6
20191021065650 73 338 2.0 7.0 0.00 0.00 0.00 10 1011.4
20191021065135 73 341 6.0 7.0 0.00 0.00 0.00 10 1011.3
20191021064650 74 355 4.0 9.0 0.00 0.00 0.00 10 1011.1
20191021064150 74 5 3.0 9.0 0.00 0.00 0.00 10 1011.0
20191021063635 74 9 5.0 8.0 0.00 0.00 0.00 9 1010.9
20191021063135 73 5 4.0 7.0 0.00 0.00 0.00 10 1010.9
20191021062635 73 5 2.0 6.0 0.00 0.00 0.00 10 1010.9
20191021062135 73 5 3.0 6.0 0.00 0.00 0.00 11 1010.8
20191021061635 73 355 2.0 7.0 0.00 0.00 0.00 10 1010.7
20191021061135 73 355 6.0 11.0 0.00 0.00 0.00 10 1010.8
20191021060635 72 360 2.0 11.0 0.00 0.00 0.00 10 1011.0
20191021060135 72 331 4.0 8.0 0.00 0.00 0.00 11 1011.1
20191021055635 70 329 3.0 9.0 0.00 0.00 0.00 12 1010.9
20191021055150 69 339 4.0 9.0 0.00 0.00 0.00 13 1010.7
20191021054635 68 268 4.0 7.0 0.00 0.00 0.00 15 1010.7
20191021054150 67 236 3.0 5.0 0.00 0.00 0.00 17 1010.6
20191021053635 67 235 2.0 4.0 0.00 0.00 0.00 20 1010.6
20191021053135 68 235 1.0 4.0 0.00 0.00 0.00 20 1010.7
20191021052650 68 235 2.0 3.0 0.00 0.00 0.00 20 1010.6
20191021052150 68 235 0.0 3.0 0.00 0.00 0.00 20 1010.5
20191021051635 69 235 1.0 3.0 0.00 0.00 0.00 19 1010.5
20191021051135 69 235 0.0 3.0 0.00 0.00 0.00 19 1010.2
20191021050635 69 235 1.0 3.0 0.00 0.00 0.00 17 1010.1
20191021050135 70 235 2.0 2.0 0.00 0.00 0.00 17 1010.2
20191021045635 70 235 1.0 2.0 0.00 0.00 0.00 16 1010.1
20191021045135 71 235 0.0 2.0 0.00 0.00 0.00 16 1010.0
20191021044635 71 235 0.0 2.0 0.00 0.00 0.00 15 1009.8
20191021044150 71 235 0.0 5.0 0.00 0.00 0.00 15 1009.8
20191021043635 71 235 1.0 5.0 0.00 0.00 0.00 14 1009.7
20191021043151 71 235 0.0 5.0 0.00 0.00 0.00 13 1009.5
20191021042650 72 235 4.0 5.0 0.00 0.00 0.00 13 1009.6
20191021042135 72 234 2.0 5.0 0.00 0.00 0.00 12 1009.4
20191021041651 72 233 2.0 6.0 0.00 0.00 0.00 12 1009.2
20191021041135 72 229 3.0 6.0 0.00 0.00 0.00 11 1008.9
20191021040635 73 225 4.0 6.0 0.00 0.00 0.00 11 1008.7
20191021040135 73 223 1.0 4.0 0.00 0.00 0.00 11 1008.8
20191021035635 74 223 1.0 4.0 0.00 0.00 0.00 12 1008.9
20191021035150 74 222 0.0 2.0 0.00 0.00 0.00 12 1008.8
20191021034635 74 222 0.0 2.0 0.00 0.00 0.00 11 1008.9
20191021034150 75 222 0.0 5.0 0.00 0.00 0.00 11 1009.1
20191021033650 75 222 0.0 5.0 0.00 0.00 0.00 11 1009.0
20191021033135 75 222 0.0 7.0 0.00 0.00 0.00 11 1009.0
20191021032650 75 222 1.0 7.0 0.00 0.00 0.00 11 1008.8
20191021032135 75 217 3.0 6.0 0.00 0.00 0.00 12 1008.8
20191021031650 75 217 3.0 6.0 0.00 0.00 0.00 12 1008.7
20191021031135 75 215 4.0 5.0 0.00 0.00 0.00 13 1008.6
20191021030650 75 215 4.0 6.0 0.00 0.00 0.00 14 1008.5
20191021030135 75 215 4.0 6.0 0.00 0.00 0.00 15 1008.3
20191021025635 75 215 2.0 5.0 0.00 0.00 0.00 16 1007.9
20191021025150 75 215 2.0 5.0 0.00 0.00 0.00 16 1007.9
20191021024634 75 215 3.0 5.0 0.00 0.00 0.00 17 1007.9
20191021024135 75 215 2.0 3.0 0.00 0.00 0.00 17 1007.9
20191021023635 75 215 3.0 4.0 0.00 0.00 0.00 17 1008.1
20191021023135 75 215 1.0 4.0 0.00 0.00 0.00 17 1008.0
20191021022650 76 215 3.0 4.0 0.00 0.00 0.00 18 1008.0
20191021022134 76 215 2.0 5.0 0.00 0.00 0.00 17 1008.1
20191021021650 76 215 1.0 5.0 0.00 0.00 0.00 17 1008.2
20191021021135 77 215 2.0 3.0 0.00 0.00 0.00 18 1008.2
20191021020634 78 215 0.0 0.0 0.00 0.00 0.00 19 1008.3
20191021020134 78 215 0.0 0.0 0.00 0.00 0.00 18 1008.2
20191021015634 78 215 0.0 2.0 0.00 0.00 0.00 18 1007.9
20191021015134 78 215 0.0 5.0 0.00 0.00 0.00 18 1007.8
20191021014634 79 215 0.0 5.0 0.00 0.00 0.00 17 1007.8
20191021014134 79 215 3.0 5.0 0.00 0.00 0.00 17 1007.5
20191021013634 79 215 2.0 3.0 0.00 0.00 0.00 16 1007.4
20191021013150 80 215 2.0 3.0 0.00 0.00 0.00 16 1007.2
20191021012650 80 215 0.0 5.0 0.00 0.00 0.00 16 1007.3
20191021012134 80 215 3.0 5.0 0.00 0.00 0.00 16 1007.1
20191021011650 81 215 2.0 4.0 0.00 0.00 0.00 15 1007.2
20191021011134 81 215 2.0 2.0 0.00 0.00 0.00 15 1007.2
20191021010634 82 215 0.0 3.0 0.00 0.00 0.00 15 1007.2
20191021010150 82 215 1.0 5.0 0.00 0.00 0.00 14 1007.3
20191021005634 82 215 1.0 5.0 0.00 0.00 0.00 14 1007.4
20191021005134 83 215 3.0 4.0 0.00 0.00 0.00 14 1007.4
20191021004635 83 215 2.0 6.0 0.00 0.00 0.00 13 1007.4
20191021004134 83 215 4.0 7.0 0.00 0.00 0.00 13 1007.3
20191021003636 84 215 3.0 8.0 0.00 0.00 0.00 13 1007.3
20191021003149 84 215 4.0 11.0 0.00 0.00 0.00 13 1007.3
20191021002634 84 212 3.0 11.0 0.00 0.00 0.00 13 1007.3
20191021002134 84 200 7.0 10.0 0.00 0.00 0.00 13 1007.3
20191021001650 85 213 6.0 10.0 0.00 0.00 0.00 13 1007.2
20191021001150 85 216 6.0 10.0 0.00 0.00 0.00 13 1007.2
20191021000636 85 215 7.0 10.0 0.00 0.00 0.00 13 1007.2
20191021000149 85 194 5.0 12.0 0.00 0.00 0.00 13 1007.1
20191020235634 85 219 4.0 12.0 0.00 0.00 0.00 13 1007.3
20191020235150 86 182 7.0 10.0 0.00 0.00 0.00 12 1007.3
20191020234634 86 223 8.0 11.0 0.00 0.00 0.00 12 1007.3
20191020234150 86 226 8.0 11.0 0.00 0.00 0.00 12 1007.4
20191020233650 86 220 3.0 8.0 0.00 0.00 0.00 13 1007.3
20191020233150 86 210 7.0 9.0 0.00 0.00 0.00 13 1007.3
20191020232634 86 179 7.0 9.0 0.00 0.00 0.00 13 1007.3
20191020232150 86 213 2.0 11.0 0.00 0.00 0.00 12 1007.3
20191020231634 87 222 7.0 11.0 0.00 0.00 0.00 12 1007.5
20191020231134 87 202 10.0 10.0 0.00 0.00 0.00 12 1007.5
20191020230649 87 201 4.0 7.0 0.00 0.00 0.00 12 1007.5
20191020230134 87 201 5.0 8.0 0.00 0.00 0.00 12 1007.6
20191020225634 87 199 2.0 10.0 0.00 0.00 0.00 12 1007.6
20191020225150 87 196 7.0 10.0 0.00 0.00 0.00 12 1007.6
20191020224649 88 205 3.0 7.0 0.00 0.00 0.00 12 1007.6
20191020224134 88 205 4.0 7.0 0.00 0.00 0.00 12 1007.7
20191020223650 88 202 4.0 7.0 0.00 0.00 0.00 12 1007.6
20191020223150 87 198 6.0 10.0 0.00 0.00 0.00 13 1007.7
20191020222634 87 197 1.0 10.0 0.00 0.00 0.00 12 1007.6
20191020222134 87 208 6.0 10.0 0.00 0.00 0.00 12 1007.5
20191020221649 87 225 2.0 10.0 0.00 0.00 0.00 12 1007.5
20191020221134 87 244 2.0 6.0 0.00 0.00 0.00 12 1007.7
20191020220649 88 263 1.0 7.0 0.00 0.00 0.00 11 1007.8
20191020220134 89 263 2.0 7.0 0.00 0.00 0.00 11 1007.9
20191020215649 89 265 2.0 6.0 0.00 0.00 0.00 11 1008.1
20191020215135 89 263 4.0 5.0 0.00 0.00 0.00 11 1008.1
20191020214649 89 264 0.0 5.0 0.00 0.00 0.00 11 1008.1
20191020214134 88 264 0.0 7.0 0.00 0.00 0.00 12 1008.1
20191020213634 88 264 5.0 7.0 0.00 0.00 0.00 11 1008.2
20191020213134 88 267 5.0 6.0 0.00 0.00 0.00 12 1008.2
20191020212649 87 267 0.0 6.0 0.00 0.00 0.00 11 1008.2
20191020212149 86 267 0.0 6.0 0.00 0.00 0.00 13 1008.2
20191020211649 86 267 4.0 7.0 0.00 0.00 0.00 13 1008.2
20191020211134 86 248 6.0 7.0 0.00 0.00 0.00 12 1008.2
20191020210634 87 242 3.0 7.0 0.00 0.00 0.00 13 1008.2
20191020210149 85 238 2.0 5.0 0.00 0.00 0.00 13 1008.3
20191020205634 86 238 1.0 5.0 0.00 0.00 0.00 13 1008.4
20191020205134 85 238 2.0 6.0 0.00 0.00 0.00 12 1008.4
20191020204634 87 239 2.0 6.0 0.00 0.00 0.00 12 1008.5
20191020204149 87 239 3.0 7.0 0.00 0.00 0.00 13 1008.8
20191020203649 86 239 3.0 8.0 0.00 0.00 0.00 12 1008.9
20191020203150 86 238 5.0 8.0 0.00 0.00 0.00 12 1008.9
20191020202634 86 233 5.0 7.0 0.00 0.00 0.00 13 1009.0
20191020202134 86 233 2.0 7.0 0.00 0.00 0.00 13 1009.0
20191020201634 87 233 6.0 8.0 0.00 0.00 0.00 12 1008.9
20191020201134 86 234 7.0 8.0 0.00 0.00 0.00 12 1009.2
20191020200649 86 227 4.0 7.0 0.00 0.00 0.00 12 1009.3
20191020200149 85 227 1.0 7.0 0.00 0.00 0.00 12 1009.3
20191020195649 84 225 3.0 7.0 0.00 0.00 0.00 13 1009.3
20191020195149 84 224 0.0 7.0 0.00 0.00 0.00 12 1009.4
20191020194634 85 224 0.0 7.0 0.00 0.00 0.00 12 1009.6
20191020194149 84 219 5.0 6.0 0.00 0.00 0.00 13 1009.4
20191020193649 83 218 1.0 6.0 0.00 0.00 0.00 13 1009.5
20191020193135 84 218 4.0 6.0 0.00 0.00 0.00 13 1009.6
20191020192634 83 219 2.0 7.0 0.00 0.00 0.00 13 1009.6
20191020192134 83 219 5.0 7.0 0.00 0.00 0.00 13 1009.7
20191020191634 84 219 6.0 6.0 0.00 0.00 0.00 13 1009.8
20191020191134 84 219 2.0 6.0 0.00 0.00 0.00 13 1009.8
20191020190650 84 219 2.0 6.0 0.00 0.00 0.00 12 1009.7
20191020190134 83 213 3.0 7.0 0.00 0.00 0.00 14 1009.7
20191020185649 81 213 2.0 7.0 0.00 0.00 0.00 14 1009.7
20191020185134 81 213 1.0 7.0 0.00 0.00 0.00 15 1009.8
20191020184634 81 211 3.0 9.0 0.00 0.00 0.00 15 1009.8
20191020184149 82 223 5.0 9.0 0.00 0.00 0.00 15 1009.9
20191020183634 81 227 5.0 8.0 0.00 0.00 0.00 15 1009.8
20191020183149 80 227 3.0 6.0 0.00 0.00 0.00 16 1009.9
20191020182634 81 240 2.0 6.0 0.00 0.00 0.00 15 1010.0
20191020182149 81 240 3.0 7.0 0.00 0.00 0.00 15 1010.2
20191020181634 80 237 2.0 7.0 0.00 0.00 0.00 16 1010.2
20191020181149 81 344 4.0 4.0 0.00 0.00 0.00 15 1010.3